period_start,C,m1,H,J0,J1,J2,J3,J4,J5,JA,JB,JC,JD,JJ,JK,JN,#
2014-01-15 00:00:04,0.24,0.27,0.00,20.41,26.50,29.77,6.15,31.42,1025.91,2044.00,3422.95,3264.57,3541.60,349.89,329.51,1.02,0000 0000 0000 0000 000000
2014-01-15 00:01:04,0.32,0.27,0.00,20.40,26.50,29.79,6.17,31.50,1025.91,2044.01,3422.31,3264.19,3541.17,349.73,329.55,1.02,0000 0000 0000 0000 000000
2014-01-15 00:02:05,0.19,0.27,0.00,20.39,26.50,29.79,6.05,31.29,1025.91,2044.00,3421.62,3263.67,3540.57,349.82,329.65,1.03,0000 0000 0000 0000 000000
2014-01-15 00:03:05,0.28,0.28,0.00,20.38,26.50,29.80,6.34,31.46,1025.90,2044.03,3421.03,3263.25,3540.15,350.30,330.12,1.04,0000 0000 0000 0000 000000
2014-01-15 00:04:05,0.23,0.28,0.00,20.38,26.50,29.79,6.26,31.21,1025.90,2044.02,3420.37,3262.92,3539.55,350.77,330.56,1.04,0000 0000 0000 0000 000000
2014-01-15 00:05:05,0.22,0.28,0.00,20.37,26.50,29.78,6.19,31.21,1025.90,2044.03,3419.66,3262.38,3539.06,349.54,329.42,1.05,0000 0000 0000 0000 000000
2014-01-15 00:06:06,0.27,0.28,0.00,20.37,26.50,29.75,6.11,31.38,1025.91,2044.01,3419.11,3262.04,3538.46,349.68,329.56,1.05,0000 0000 0000 0000 000000
2014-01-15 00:07:06,0.20,0.28,0.00,20.37,26.50,29.75,6.29,31.25,1025.92,2044.03,3418.45,3261.45,3537.95,350.08,329.94,1.06,0000 0000 0000 0000 000000
2014-01-15 00:08:06,0.29,0.28,0.00,20.37,26.50,29.74,6.12,31.29,1025.91,2044.01,3417.77,3261.11,3537.37,350.08,330.11,1.06,0000 0000 0000 0000 000000
2014-01-15 00:09:06,0.23,0.28,0.00,20.38,26.50,29.76,6.20,31.46,1025.90,2044.00,3417.07,3260.54,3536.95,350.28,330.26,1.07,0000 0000 0000 0000 000000
2014-01-15 00:10:07,0.26,0.29,0.00,20.38,26.50,29.76,6.18,31.33,1025.90,2044.01,3416.39,3260.16,3536.40,350.11,329.95,1.08,0000 0000 0000 0000 000000
2014-01-15 00:11:07,0.25,0.29,0.00,20.37,26.50,29.73,6.02,31.29,1025.93,2044.01,3415.71,3259.59,3536.01,349.24,329.15,1.08,0000 0000 0000 0000 000000
2014-01-15 00:12:07,0.26,0.29,0.00,20.36,26.49,29.74,6.06,31.38,1025.94,2044.01,3415.08,3259.17,3535.42,349.36,329.49,1.09,0000 0000 0000 0000 000000
2014-01-15 00:13:07,0.25,0.29,0.00,20.36,26.49,29.72,6.08,31.38,1026.06,2044.03,3414.40,3258.56,3534.85,350.23,330.11,1.09,0000 0000 0000 0000 000000
2014-01-15 00:14:08,0.31,0.29,0.00,20.36,26.49,29.76,6.21,31.46,1026.14,2044.02,3413.76,3258.17,3534.32,350.08,330.15,1.10,0000 0000 0000 0000 000000
2014-01-15 00:15:08,0.21,0.29,0.00,20.35,26.48,29.73,6.17,31.46,1026.15,2044.02,3413.12,3257.63,3533.79,349.69,330.00,1.11,0000 0000 0000 0000 000000
2014-01-15 00:16:08,0.26,0.29,0.00,20.34,26.48,29.72,5.98,31.42,1026.11,2044.03,3412.44,3257.22,3533.27,349.53,329.50,1.11,0000 0000 0000 0000 000000
2014-01-15 00:17:08,0.26,0.30,0.00,20.34,26.48,29.72,6.09,31.46,1026.18,2044.03,3411.72,3256.70,3532.68,350.20,330.26,1.12,0000 0000 0000 0000 000000
2014-01-15 00:18:09,0.29,0.30,0.00,20.34,26.48,29.73,6.16,31.29,1026.10,2044.06,3411.04,3256.25,3532.19,349.71,329.29,1.12,0000 0000 0000 0000 000000
2014-01-15 00:19:09,0.26,0.30,0.00,20.34,26.47,29.74,5.96,31.42,1026.15,2044.04,3410.36,3255.71,3531.56,349.88,329.82,1.13,0000 0000 0000 0000 000000
2014-01-15 00:20:09,0.27,0.30,0.00,20.34,26.47,29.71,6.22,31.58,1026.27,2044.04,3409.64,3255.25,3531.09,350.33,330.52,1.14,0000 0000 0000 0000 000000
2014-01-15 00:21:09,0.24,0.30,0.00,20.33,26.47,29.71,6.07,31.33,1026.36,2044.04,3409.00,3254.74,3530.45,349.55,329.63,1.14,0000 0000 0000 0000 000000
2014-01-15 00:22:10,0.27,0.30,0.00,20.32,26.47,29.71,6.28,31.46,1026.38,2044.02,3408.37,3254.26,3530.01,350.06,330.12,1.15,0000 0000 0000 0000 000000
2014-01-15 00:23:10,0.21,0.31,0.00,20.32,26.47,29.71,6.16,31.17,1026.36,2044.01,3407.72,3253.75,3529.42,349.50,329.58,1.15,0000 0000 0000 0000 000000
2014-01-15 00:24:10,0.28,0.31,0.00,20.34,26.47,29.71,6.31,31.25,1026.33,2044.01,3407.08,3253.26,3528.78,350.48,330.48,1.16,0000 0000 0000 0000 000000
2014-01-15 00:25:10,0.26,0.31,0.00,20.33,26.47,29.69,6.23,31.17,1026.38,2044.00,3406.40,3252.66,3528.25,349.82,329.88,1.16,0000 0000 0000 0000 000000
2014-01-15 00:26:11,0.28,0.31,0.00,20.33,26.47,29.66,6.27,31.33,1026.38,2044.00,3405.69,3252.22,3527.65,350.82,330.82,1.17,0000 0000 0000 0000 000000
2014-01-15 00:27:11,0.26,0.31,0.00,20.34,26.47,29.60,6.27,31.17,1026.36,2044.00,3405.03,3251.70,3527.16,349.85,329.89,1.18,0000 0000 0000 0000 000000
2014-01-15 00:28:11,0.26,0.31,0.00,20.34,26.47,29.66,6.28,31.17,1026.38,2044.00,3404.40,3251.25,3526.54,350.28,330.32,1.18,0000 0000 0000 0000 000000
2014-01-15 00:29:11,0.27,0.31,0.00,20.34,26.47,29.68,6.24,30.92,1026.38,2044.01,3403.77,3250.83,3526.13,350.33,330.54,1.19,0000 0000 0000 0000 000000
2014-01-15 00:30:11,0.22,0.32,0.00,20.36,26.47,29.70,6.18,31.17,1026.38,2044.01,3403.11,3250.31,3525.51,350.36,330.54,1.19,0000 0000 0000 0000 000000
2014-01-15 00:31:12,0.28,0.32,0.00,20.35,26.47,29.68,6.09,31.13,1026.38,2044.02,3402.41,3249.87,3525.05,349.80,329.84,1.20,0000 0000 0000 0000 000000
2014-01-15 00:32:12,0.26,0.32,0.00,20.34,26.46,29.70,6.21,31.04,1026.39,2044.01,3401.73,3249.33,3524.44,349.99,330.03,1.21,0000 0000 0000 0000 000000
2014-01-15 00:33:12,0.27,0.32,0.00,20.35,26.45,29.71,6.29,30.96,1026.38,2044.00,3401.07,3248.90,3524.02,350.30,330.30,1.21,0000 0000 0000 0000 000000
2014-01-15 00:34:12,0.21,0.32,0.00,20.36,26.45,29.71,6.13,31.25,1026.38,2044.01,3400.41,3248.35,3523.43,350.23,330.43,1.22,0000 0000 0000 0000 000000
2014-01-15 00:35:13,0.29,0.32,0.00,20.35,26.45,29.69,6.32,31.38,1026.38,2044.03,3399.72,3248.00,3523.04,350.34,330.35,1.22,0000 0000 0000 0000 000000
2014-01-15 00:36:13,0.22,0.32,0.00,20.35,26.45,29.67,6.21,31.42,1026.38,2044.03,3399.07,3247.45,3522.44,350.32,330.33,1.23,0000 0000 0000 0000 000000
2014-01-15 00:37:13,0.29,0.33,0.00,20.36,26.45,29.67,6.13,31.50,1026.39,2044.02,3398.34,3246.99,3522.03,350.26,330.52,1.23,0000 0000 0000 0000 000000
2014-01-15 00:38:13,0.22,0.33,0.00,20.37,26.45,29.68,6.17,31.33,1026.38,2044.02,3397.57,3246.41,3521.45,350.48,329.87,1.24,0000 0000 0000 0000 000000
2014-01-15 00:39:14,0.31,0.33,0.00,20.37,26.45,29.67,6.21,31.29,1026.38,2044.02,3396.87,3246.00,3521.04,349.79,329.81,1.25,0000 0000 0000 0000 000000
2014-01-15 00:40:14,0.23,0.33,0.00,20.36,26.45,29.70,6.19,31.33,1026.38,2044.03,3396.12,3245.41,3520.44,350.13,330.42,1.25,0000 0000 0000 0000 000000
2014-01-15 00:41:14,0.31,0.33,0.00,20.35,26.45,29.67,6.23,31.38,1026.38,2044.02,3395.41,3244.96,3519.96,350.29,330.46,1.26,0000 0000 0000 0000 000000
2014-01-15 00:42:15,0.25,0.33,0.00,20.35,26.45,29.69,6.32,31.50,1026.38,2044.02,3394.71,3244.38,3519.36,350.04,330.08,1.26,0000 0000 0000 0000 000000
2014-01-15 00:43:15,0.29,0.34,0.00,20.37,26.45,29.65,6.26,31.58,1026.38,2044.03,3394.06,3243.90,3518.86,350.11,330.12,1.27,0000 0000 0000 0000 000000
2014-01-15 00:44:15,0.26,0.34,0.00,20.35,26.45,29.66,6.25,31.67,1026.38,2044.04,3393.37,3243.35,3518.32,349.79,329.82,1.28,0000 0000 0000 0000 000000
2014-01-15 00:45:16,0.30,0.34,0.00,20.35,26.45,29.70,6.05,31.54,1026.16,2044.05,3392.65,3242.90,3517.76,349.58,329.58,1.28,0000 0000 0000 0000 000000
2014-01-15 00:46:16,0.25,0.34,0.00,20.36,26.44,29.70,6.12,31.58,1025.97,2044.05,3391.84,3242.34,3517.27,349.63,329.48,1.29,0000 0000 0000 0000 000000
2014-01-15 00:47:16,0.29,0.34,0.00,20.34,26.44,29.70,6.22,31.63,1025.91,2044.08,3391.27,3241.88,3516.71,349.64,329.91,1.29,0000 0000 0000 0000 000000
2014-01-15 00:48:17,0.25,0.34,0.00,20.35,26.44,29.69,6.29,31.71,1025.90,2044.06,3390.59,3241.34,3516.18,349.99,330.13,1.30,0000 0000 0000 0000 000000
2014-01-15 00:49:17,0.26,0.35,0.00,20.34,26.43,29.68,6.25,31.50,1025.91,2044.05,3389.82,3240.82,3515.59,350.68,330.52,1.30,0000 0000 0000 0000 000000
2014-01-15 00:50:17,0.26,0.35,0.00,20.34,26.43,29.69,6.17,31.58,1025.92,2044.05,3389.16,3240.30,3515.16,349.47,329.43,1.31,0000 0000 0000 0000 000000
2014-01-15 00:51:17,0.28,0.35,0.00,20.34,26.43,29.71,6.14,31.88,1025.98,2044.07,3388.43,3239.76,3514.54,350.26,330.19,1.32,0000 0000 0000 0000 000000
2014-01-15 00:52:18,0.30,0.35,0.00,20.33,26.42,29.69,6.26,31.83,1025.94,2044.11,3387.68,3239.27,3514.14,350.05,329.96,1.32,0000 0000 0000 0000 000000
2014-01-15 00:53:18,0.32,0.35,0.00,20.32,26.42,29.69,6.30,31.83,1026.01,2044.21,3386.85,3238.65,3513.49,350.34,330.01,1.33,0000 0000 0000 0000 000000
2014-01-15 00:54:18,0.38,0.35,0.00,20.32,26.42,29.70,6.32,31.71,1026.10,2044.26,3386.18,3238.14,3512.67,350.28,330.22,1.33,0000 0000 0000 0000 000000
2014-01-15 00:55:19,0.33,0.36,0.00,20.32,26.42,29.68,6.11,31.67,1026.13,2044.23,3385.47,3237.49,3512.07,349.97,329.78,1.34,0000 0000 0000 0000 000000
2014-01-15 00:56:19,0.30,0.36,0.00,20.32,26.42,29.66,6.19,31.75,1026.02,2044.28,3384.74,3237.09,3511.41,350.14,329.71,1.35,0000 0000 0000 0000 000000
2014-01-15 00:57:19,0.27,0.36,0.00,20.32,26.42,29.68,6.22,31.58,1026.02,2044.23,3384.15,3236.48,3510.72,349.64,329.83,1.35,0000 0000 0000 0000 000000
2014-01-15 00:58:19,0.26,0.36,0.00,20.32,26.42,29.68,6.06,31.50,1026.16,2044.19,3383.44,3235.99,3510.21,349.65,329.60,1.36,0000 0000 0000 0000 000000
2014-01-15 00:59:20,0.25,0.36,0.00,20.32,26.42,29.70,6.33,31.50,1026.11,2044.17,3382.70,3235.38,3509.56,350.73,330.66,1.36,0000 0000 0000 0000 000000
2014-01-15 01:00:20,0.28,0.37,0.00,20.31,26.42,29.69,6.33,31.50,1025.95,2044.08,3381.93,3234.87,3509.00,350.26,330.19,1.37,0000 0000 0000 0000 000000
2014-01-15 01:01:20,0.22,0.37,0.00,20.30,26.42,29.69,6.18,31.42,1025.90,2044.09,3381.22,3234.33,3508.39,349.81,329.52,1.38,0000 0000 0000 0000 000000
2014-01-15 01:02:21,0.32,0.37,0.00,20.29,26.42,29.70,6.12,31.29,1025.90,2044.19,3380.49,3233.88,3507.92,349.51,329.47,1.38,0000 0000 0000 0000 000000
2014-01-15 01:03:21,0.31,0.37,0.00,20.29,26.42,29.69,6.10,31.38,1025.91,2044.21,3379.73,3233.36,3507.36,349.73,329.97,1.39,0000 0000 0000 0000 000000
2014-01-15 01:04:22,0.30,0.37,0.00,20.29,26.42,29.68,6.12,31.25,1025.94,2044.23,3379.05,3232.85,3506.87,349.05,329.16,1.39,0000 0000 0000 0000 000000
2014-01-15 01:05:22,0.27,0.37,0.00,20.28,26.42,29.64,6.01,31.25,1026.02,2044.26,3378.35,3232.31,3506.26,349.19,328.94,1.40,0000 0000 0000 0000 000000
2014-01-15 01:06:22,0.33,0.38,0.00,20.27,26.41,29.65,5.93,31.13,1026.21,2044.38,3377.58,3231.78,3505.61,348.93,329.06,1.40,0000 0000 0000 0000 000000
2014-01-15 01:07:22,0.37,0.38,0.00,20.27,26.41,29.65,6.20,31.38,1026.19,2044.41,3376.87,3231.26,3505.13,350.44,330.48,1.41,0000 0000 0000 0000 000000
2014-01-15 01:08:23,0.34,0.38,0.00,20.27,26.40,29.65,6.28,31.21,1026.15,2044.36,3376.20,3230.66,3504.50,350.87,330.86,1.42,0000 0000 0000 0000 000000
2014-01-15 01:09:23,0.21,0.38,0.00,20.28,26.40,29.65,6.08,31.38,1025.99,2044.25,3375.45,3230.21,3503.99,349.75,329.76,1.42,0000 0000 0000 0000 000000
2014-01-15 01:10:24,0.21,0.38,0.00,20.28,26.40,29.65,6.09,31.25,1025.93,2044.22,3374.69,3229.61,3503.40,350.32,330.26,1.43,0000 0000 0000 0000 000000
2014-01-15 01:11:24,0.29,0.38,0.00,20.29,26.40,29.66,6.02,31.08,1025.92,2044.27,3373.91,3229.10,3502.90,349.49,329.54,1.43,0000 0000 0000 0000 000000
2014-01-15 01:12:24,0.31,0.39,0.00,20.29,26.40,29.66,6.04,31.29,1025.91,2044.30,3373.13,3228.46,3502.35,349.58,329.70,1.44,0000 0000 0000 0000 000000
2014-01-15 01:13:24,0.30,0.39,0.00,20.29,26.40,29.66,6.21,31.63,1025.90,2044.31,3372.40,3228.02,3501.75,350.38,330.30,1.45,0000 0000 0000 0000 000000
2014-01-15 01:14:25,0.26,0.39,0.00,20.29,26.40,29.66,6.37,32.08,1025.88,2044.26,3371.63,3227.42,3501.25,350.61,330.51,1.45,0000 0000 0000 0000 000000
2014-01-15 01:15:25,0.28,0.39,0.00,20.28,26.40,29.64,6.28,32.13,1025.87,2044.33,3370.84,3226.89,3500.67,350.47,330.39,1.46,0000 0000 0000 0000 000000
2014-01-15 01:16:25,0.38,0.39,0.00,20.27,26.40,29.60,6.18,32.21,1025.85,2044.56,3370.12,3226.33,3500.21,349.08,328.68,1.46,0000 0000 0000 0000 000000
2014-01-15 01:17:26,0.42,0.40,0.00,20.27,26.40,29.63,6.12,32.00,1025.88,2044.66,3369.38,3225.82,3499.63,349.55,329.54,1.47,0000 0000 0000 0000 000000
2014-01-15 01:18:26,0.40,0.40,0.00,20.27,26.40,29.63,6.04,32.04,1025.89,2044.80,3368.60,3225.31,3499.18,349.90,329.87,1.48,0000 0000 0000 0000 000000
2014-01-15 01:19:26,0.37,0.40,0.00,20.27,26.39,29.65,6.10,31.54,1025.89,2044.83,3367.78,3224.75,3498.57,349.92,330.05,1.48,0000 0000 0000 0000 000000
2014-01-15 01:20:27,0.31,0.40,0.00,20.26,26.39,29.66,6.27,31.46,1025.89,2044.85,3367.12,3224.26,3498.01,350.44,330.39,1.49,0000 0000 0000 0000 000000
2014-01-15 01:21:27,0.31,0.41,0.00,20.25,26.39,29.66,6.14,31.50,1025.89,2044.87,3366.43,3223.67,3497.38,349.93,329.93,1.49,0000 0000 0000 0000 000000
2014-01-15 01:22:27,0.30,0.41,0.00,20.24,26.38,29.62,6.17,31.46,1025.92,2044.89,3365.70,3223.20,3496.75,349.85,329.74,1.50,0000 0000 0000 0000 000000
2014-01-15 01:23:27,0.29,0.41,0.00,20.24,26.38,29.60,6.17,31.33,1026.01,2044.91,3365.01,3222.61,3496.25,350.59,330.22,1.50,0000 0000 0000 0000 000000
2014-01-15 01:24:28,0.29,0.41,0.00,20.24,26.37,29.59,6.21,31.79,1026.04,2044.93,3364.32,3222.15,3495.63,350.15,330.26,1.51,0000 0000 0000 0000 000000
2014-01-15 01:25:28,0.31,0.41,0.00,20.23,26.37,29.59,6.22,31.54,1026.02,2044.95,3363.58,3221.53,3495.16,350.44,330.05,1.52,0000 0000 0000 0000 000000
2014-01-15 01:26:28,0.28,0.41,0.00,20.22,26.37,29.60,6.21,31.46,1026.02,2044.93,3362.95,3221.17,3494.51,350.76,330.49,1.52,0000 0000 0000 0000 000000
2014-01-15 01:27:29,0.23,0.41,0.00,20.22,26.37,29.61,5.98,31.33,1026.13,2044.93,3362.31,3220.62,3493.98,349.41,329.26,1.53,0000 0000 0000 0000 000000
2014-01-15 01:28:29,0.28,0.42,0.00,20.22,26.37,29.61,6.27,31.46,1026.03,2044.95,3361.58,3220.18,3493.35,350.31,330.43,1.53,0000 0000 0000 0000 000000
2014-01-15 01:29:29,0.29,0.42,0.00,20.21,26.37,29.60,6.07,31.58,1025.98,2044.95,3360.92,3219.58,3492.67,349.32,329.41,1.54,0000 0000 0000 0000 000000
2014-01-15 01:30:30,0.29,0.42,0.00,20.22,26.37,29.59,6.02,31.50,1025.93,2044.97,3360.16,3219.10,3492.17,350.35,330.37,1.55,0000 0000 0000 0000 000000
2014-01-15 01:31:30,0.33,0.42,0.00,20.22,26.37,29.55,6.05,31.29,1025.91,2044.97,3359.45,3218.49,3491.51,349.09,329.17,1.55,0000 0000 0000 0000 000000
2014-01-15 01:32:30,0.27,0.42,0.00,20.22,26.37,29.56,6.09,31.67,1025.92,2044.92,3358.73,3218.08,3491.00,349.47,329.69,1.56,0000 0000 0000 0000 000000
2014-01-15 01:33:31,0.26,0.43,0.00,20.22,26.37,29.56,6.03,31.63,1025.91,2044.91,3358.00,3217.45,3490.40,348.72,328.82,1.56,0000 0000 0000 0000 000000
2014-01-15 01:34:31,0.27,0.43,0.00,20.20,26.36,29.56,6.06,31.29,1025.90,2044.94,3357.32,3217.01,3489.82,350.02,330.06,1.57,0000 0000 0000 0000 000000
2014-01-15 01:35:31,0.31,0.43,0.00,20.19,26.36,29.53,6.27,31.42,1025.90,2044.95,3356.57,3216.39,3489.29,350.61,330.63,1.57,0000 0000 0000 0000 000000
2014-01-15 01:36:32,0.27,0.43,0.00,20.20,26.35,29.54,6.17,31.50,1025.90,2044.96,3355.91,3216.03,3488.76,350.13,330.18,1.58,0000 0000 0000 0000 000000
2014-01-15 01:37:32,0.26,0.43,0.00,20.20,26.35,29.51,6.20,31.46,1025.90,2044.98,3355.25,3215.44,3488.28,350.17,330.02,1.59,0000 0000 0000 0000 000000
2014-01-15 01:38:32,0.28,0.43,0.00,20.19,26.35,29.47,6.09,31.67,1025.90,2044.98,3354.52,3215.05,3487.72,349.77,329.84,1.59,0000 0000 0000 0000 000000
2014-01-15 01:39:33,0.27,0.44,0.00,20.19,26.35,29.52,6.23,31.58,1025.89,2044.99,3353.78,3214.44,3487.24,350.85,330.85,1.60,0000 0000 0000 0000 000000
2014-01-15 01:40:33,0.27,0.44,0.00,20.19,26.35,29.54,6.25,31.67,1025.89,2044.98,3353.24,3214.07,3486.60,350.76,330.77,1.60,0000 0000 0000 0000 000000
2014-01-15 01:41:33,0.26,0.44,0.00,20.19,26.35,29.55,6.12,31.42,1025.89,2044.96,3352.53,3213.49,3486.00,350.63,330.37,1.61,0000 0000 0000 0000 000000
2014-01-15 01:42:34,0.27,0.44,0.00,20.18,26.35,29.54,6.20,31.38,1025.89,2044.97,3351.90,3213.06,3485.38,350.42,330.46,1.62,0000 0000 0000 0000 000000
2014-01-15 01:43:34,0.28,0.44,0.00,20.19,26.35,29.56,6.21,31.46,1025.89,2044.96,3351.19,3212.44,3484.70,349.27,329.64,1.62,0000 0000 0000 0000 000000
2014-01-15 01:44:34,0.28,0.44,0.00,20.19,26.35,29.52,6.09,31.25,1025.89,2044.95,3350.47,3211.98,3484.24,350.15,330.05,1.63,0000 0000 0000 0000 000000
2014-01-15 01:45:34,0.28,0.44,0.00,20.19,26.34,29.55,6.05,31.58,1025.86,2044.97,3349.80,3211.40,3483.62,348.84,328.95,1.63,0000 0000 0000 0000 000000
2014-01-15 01:46:35,0.28,0.45,0.00,20.18,26.34,29.54,6.32,31.71,1025.83,2044.98,3349.03,3210.91,3483.06,351.08,331.07,1.64,0000 0000 0000 0000 000000
2014-01-15 01:47:35,0.31,0.45,0.00,20.19,26.33,29.55,6.05,31.58,1025.75,2044.97,3348.29,3210.33,3482.40,350.23,330.22,1.65,0000 0000 0000 0000 000000
2014-01-15 01:48:35,0.29,0.45,0.00,20.18,26.32,29.50,6.14,31.71,1025.67,2044.96,3347.53,3209.85,3481.79,350.82,330.76,1.65,0000 0000 0000 0000 000000
2014-01-15 01:49:35,0.29,0.45,0.00,20.17,26.32,29.52,6.12,31.67,1025.64,2044.97,3346.84,3209.32,3481.28,349.27,329.31,1.66,0000 0000 0000 0000 000000
2014-01-15 01:50:36,0.25,0.45,0.00,20.17,26.32,29.48,6.13,31.50,1025.68,2044.97,3346.25,3208.94,3480.70,349.74,329.77,1.66,0000 0000 0000 0000 000000
2014-01-15 01:51:36,0.27,0.45,0.00,20.15,26.32,29.51,6.07,31.33,1025.58,2044.97,3345.55,3208.38,3480.25,349.46,329.49,1.67,0000 0000 0000 0000 000000
2014-01-15 01:52:36,0.25,0.46,0.00,20.14,26.32,29.52,6.22,31.50,1025.54,2044.98,3344.82,3207.94,3479.71,350.39,330.36,1.67,0000 0000 0000 0000 000000
2014-01-15 01:53:36,0.29,0.46,0.00,20.14,26.32,29.47,6.16,31.67,1025.47,2044.98,3344.10,3207.38,3479.22,350.00,329.96,1.68,0000 0000 0000 0000 000000
2014-01-15 01:54:37,0.28,0.46,0.00,20.12,26.32,29.45,6.22,31.50,1025.44,2044.98,3343.40,3206.90,3478.58,350.34,330.51,1.69,0000 0000 0000 0000 000000
2014-01-15 01:55:37,0.29,0.46,0.00,20.12,26.32,29.46,5.99,31.54,1025.43,2044.99,3342.69,3206.33,3478.11,349.36,329.38,1.69,0000 0000 0000 0000 000000
2014-01-15 01:56:37,0.28,0.46,0.00,20.11,26.32,29.45,6.18,31.46,1025.45,2044.98,3341.98,3205.81,3477.47,349.93,329.81,1.70,0000 0000 0000 0000 000000
2014-01-15 01:57:37,0.29,0.46,0.00,20.12,26.32,29.47,6.28,31.42,1025.50,2044.98,3341.27,3205.31,3476.85,350.79,330.76,1.70,0000 0000 0000 0000 000000
2014-01-15 01:58:38,0.29,0.47,0.00,20.12,26.32,29.49,6.23,31.46,1025.45,2044.98,3340.53,3204.73,3476.27,350.25,330.15,1.71,0000 0000 0000 0000 000000
2014-01-15 01:59:38,0.29,0.47,0.00,20.10,26.31,29.49,6.16,31.50,1025.42,2044.99,3339.83,3204.25,3475.61,349.73,329.70,1.72,0000 0000 0000 0000 000000
2014-01-15 02:00:38,0.29,0.47,0.00,20.11,26.30,29.50,6.06,31.58,1025.41,2044.99,3339.17,3203.65,3475.18,349.22,329.36,1.72,0000 0000 0000 0000 000000
2014-01-15 02:01:38,0.30,0.47,0.00,20.10,26.30,29.51,6.27,31.54,1025.41,2044.98,3338.43,3203.22,3474.56,350.05,330.13,1.73,0000 0000 0000 0000 000000
2014-01-15 02:02:39,0.26,0.47,0.00,20.10,26.30,29.48,6.03,31.67,1025.42,2044.99,3337.65,3202.63,3474.03,348.77,329.31,1.73,0000 0000 0000 0000 000000
2014-01-15 02:03:39,0.29,0.48,0.00,20.10,26.30,29.44,6.05,31.38,1025.41,2044.99,3336.94,3202.20,3473.41,349.87,329.69,1.74,0000 0000 0000 0000 000000
2014-01-15 02:04:39,0.29,0.48,0.00,20.11,26.30,29.39,6.17,31.71,1025.42,2044.98,3336.25,3201.58,3472.82,349.90,329.67,1.74,0000 0000 0000 0000 000000
2014-01-15 02:05:40,0.29,0.48,0.00,20.10,26.30,29.41,6.07,31.63,1025.41,2044.98,3335.49,3201.15,3472.28,349.51,329.54,1.75,0000 0000 0000 0000 000000
2014-01-15 02:06:40,0.27,0.48,0.00,20.09,26.30,29.43,6.11,31.63,1025.42,2044.99,3334.75,3200.56,3471.69,350.19,330.19,1.76,0000 0000 0000 0000 000000
2014-01-15 02:07:40,0.29,0.48,0.00,20.09,26.30,29.45,6.32,31.83,1025.41,2044.99,3334.13,3200.15,3471.23,350.25,330.23,1.76,0000 0000 0000 0000 000000
2014-01-15 02:08:40,0.26,0.48,0.00,20.08,26.30,29.44,6.23,31.79,1025.42,2044.99,3333.40,3199.52,3470.69,350.79,330.77,1.77,0000 0000 0000 0000 000000
2014-01-15 02:09:41,0.28,0.48,0.00,20.07,26.29,29.43,6.15,31.92,1025.48,2044.99,3332.60,3199.13,3470.21,350.40,330.43,1.77,0000 0000 0000 0000 000000
2014-01-15 02:10:41,0.27,0.49,0.00,20.08,26.29,29.40,6.28,31.63,1025.61,2044.99,3331.80,3198.52,3469.56,350.40,330.46,1.78,0000 0000 0000 0000 000000
2014-01-15 02:11:42,0.30,0.49,0.00,20.07,26.28,29.40,6.18,31.71,1025.73,2044.99,3331.16,3198.13,3469.04,349.86,330.00,1.79,0000 0000 0000 0000 000000
2014-01-15 02:12:42,0.29,0.49,0.00,20.07,26.28,29.44,6.02,31.58,1025.84,2044.99,3330.45,3197.55,3468.40,349.78,329.96,1.79,0000 0000 0000 0000 000000
2014-01-15 02:13:42,0.27,0.49,0.00,20.07,26.27,29.45,6.26,31.75,1025.84,2044.99,3329.68,3197.12,3467.80,350.07,330.24,1.80,0000 0000 0000 0000 000000
2014-01-15 02:14:42,0.28,0.49,0.00,20.07,26.27,29.41,6.17,31.71,1025.83,2044.99,3329.04,3196.50,3467.29,349.95,329.77,1.80,0000 0000 0000 0000 000000
2014-01-15 02:15:42,0.28,0.49,0.00,20.07,26.27,29.42,6.26,31.88,1025.72,2044.99,3328.32,3196.10,3466.72,349.60,329.76,1.81,0000 0000 0000 0000 000000
2014-01-15 02:16:43,0.27,0.50,0.00,20.07,26.27,29.41,6.21,31.67,1025.70,2044.99,3327.58,3195.49,3466.23,350.20,330.24,1.82,0000 0000 0000 0000 000000
2014-01-15 02:17:43,0.26,0.50,0.00,20.05,26.27,29.39,6.19,31.63,1025.59,2044.99,3326.89,3194.96,3465.60,349.73,329.87,1.82,0000 0000 0000 0000 000000
2014-01-15 02:18:43,0.32,0.50,0.00,20.06,26.27,29.45,6.16,31.79,1025.45,2044.98,3326.16,3194.36,3465.08,349.93,330.19,1.83,0000 0000 0000 0000 000000
2014-01-15 02:19:43,0.29,0.50,0.00,20.05,26.27,29.47,6.18,31.67,1025.43,2044.99,3325.43,3193.93,3464.45,350.22,330.27,1.83,0000 0000 0000 0000 000000
2014-01-15 02:20:44,0.28,0.50,0.00,20.04,26.27,29.44,6.10,31.83,1025.42,2044.99,3324.67,3193.36,3463.99,349.89,329.96,1.84,0000 0000 0000 0000 000000
2014-01-15 02:21:44,0.28,0.50,0.00,20.04,26.26,29.41,6.26,31.71,1025.41,2044.99,3324.01,3192.97,3463.40,349.86,329.65,1.84,0000 0000 0000 0000 000000
2014-01-15 02:22:44,0.28,0.51,0.00,20.02,26.25,29.40,6.20,31.96,1025.41,2044.99,3323.28,3192.37,3462.94,349.46,329.77,1.85,0000 0000 0000 0000 000000
2014-01-15 02:23:45,0.27,0.51,0.00,20.00,26.25,29.40,6.16,31.83,1025.42,2044.99,3322.51,3191.83,3462.35,350.01,330.03,1.86,0000 0000 0000 0000 000000
2014-01-15 02:24:45,0.29,0.51,0.00,19.99,26.25,29.32,6.15,31.79,1025.43,2044.99,3321.74,3191.29,3461.73,350.01,330.13,1.86,0000 0000 0000 0000 000000
2014-01-15 02:25:45,0.29,0.51,0.00,19.98,26.25,29.33,6.15,31.88,1025.42,2045.00,3321.15,3190.78,3461.20,350.11,330.25,1.87,0000 0000 0000 0000 000000
2014-01-15 02:26:45,0.30,0.51,0.00,19.97,26.25,29.33,6.23,31.54,1025.42,2045.00,3320.43,3190.26,3460.56,350.16,330.30,1.87,0000 0000 0000 0000 000000
2014-01-15 02:27:46,0.26,0.52,0.00,19.97,26.25,29.32,6.11,31.58,1025.42,2045.01,3319.68,3189.66,3460.05,349.62,329.80,1.88,0000 0000 0000 0000 000000
2014-01-15 02:28:46,0.33,0.52,0.00,19.97,26.25,29.33,6.17,31.58,1025.44,2045.01,3318.94,3189.16,3459.40,349.73,329.90,1.89,0000 0000 0000 0000 000000
2014-01-15 02:29:46,0.28,0.52,0.00,19.97,26.25,29.29,6.14,31.46,1025.49,2045.00,3318.19,3188.52,3458.73,350.06,330.20,1.89,0000 0000 0000 0000 000000
2014-01-15 02:30:46,0.32,0.52,0.00,19.97,26.24,29.29,6.11,31.58,1025.48,2045.00,3317.44,3188.03,3458.14,349.16,329.38,1.90,0000 0000 0000 0000 000000
2014-01-15 02:31:47,0.29,0.52,0.00,19.97,26.23,29.31,6.18,31.58,1025.43,2045.00,3316.70,3187.41,3457.48,350.14,330.29,1.90,0000 0000 0000 0000 000000
2014-01-15 02:32:47,0.29,0.52,0.00,19.97,26.22,29.31,6.23,31.50,1025.47,2045.00,3316.03,3187.01,3456.97,350.39,330.53,1.91,0000 0000 0000 0000 000000
2014-01-15 02:33:47,0.30,0.53,0.00,19.96,26.22,29.31,6.13,31.29,1025.67,2045.00,3315.33,3186.41,3456.36,350.22,330.27,1.91,0000 0000 0000 0000 000000
2014-01-15 02:34:48,0.26,0.53,0.00,19.97,26.22,29.32,6.17,31.38,1025.70,2045.00,3314.60,3185.90,3455.82,349.57,329.90,1.92,0000 0000 0000 0000 000000
2014-01-15 02:35:48,0.31,0.53,0.00,19.96,26.22,29.39,6.14,31.54,1025.74,2045.00,3313.85,3185.35,3455.27,349.76,329.84,1.93,0000 0000 0000 0000 000000
2014-01-15 02:36:48,0.27,0.53,0.00,19.97,26.22,29.32,6.35,31.63,1025.73,2045.00,3313.10,3184.86,3454.62,351.71,331.88,1.93,0000 0000 0000 0000 000000